DW0805 Weather Reports


time (UTC)temp
C
wind
direction
speed
KPH
gust
KPH
rain 1hr
cm
rain 24hr
cm
rain mn
cm
humidity
%
barometer
mb
20260905050515 15 286 20.9 33.8 0.00 0.99 0.00 84 1003.9
20260905043516 15 273 17.7 37.0 0.00 0.99 0.00 85 1003.5
20260905042515 15 265 20.9 33.8 0.00 0.99 0.00 85 1003.5
20260905040515 15 261 22.5 41.8 0.00 0.99 0.00 85 1003.3
20260905033515 15 248 19.3 29.0 0.00 0.99 0.00 85 1003.0
20260905031515 15 268 20.9 40.2 0.00 0.99 0.00 85 1003.0
20260905030515 15 249 22.5 32.2 0.00 0.99 0.00 84 1002.9
20260905024515 15 281 22.5 45.1 0.00 0.99 0.00 84 1002.7
20260905021515 15 288 24.1 41.8 0.00 0.99 0.00 84 1002.3
20260905015515 15 268 27.4 45.1 0.00 0.99 0.00 85 1002.1
20260905014515 15 270 27.4 40.2 0.00 0.99 0.00 86 1001.8
20260905013515 15 260 33.8 40.2 0.00 0.99 0.00 86 1001.7
20260905012515 15 275 22.5 41.8 0.00 0.99 0.00 86 1001.6
20260905011515 15 281 24.1 35.4 0.00 0.99 0.00 86 1001.6
20260905010515 15 268 20.9 32.2 0.00 0.99 0.00 87 1001.5
20260905005516 15 286 20.9 37.0 0.00 0.99 0.00 87 1001.5
20260905002515 15 273 27.4 40.2 0.00 0.99 0.00 86 1001.2
20260905001515 15 276 27.4 41.8 0.00 0.99 0.00 87 1001.0
20260905000515 15 249 25.7 38.6 0.00 0.99 0.00 87 1000.9
20260904235515 15 257 20.9 35.4 0.00 0.99 0.00 88 1000.9
20260904232515 15 273 22.5 38.6 0.00 0.99 0.00 87 1000.9
20260904231515 15 280 20.9 32.2 0.00 0.99 0.00 87 1000.8
20260904225515 15 272 20.9 38.6 0.00 0.99 0.00 86 1000.8
20260904224516 15 268 22.5 38.6 0.00 0.99 0.00 86 1000.7
20260904222516 15 276 35.4 45.1 0.00 0.99 0.00 86 1000.7
20260904221510 15 261 22.5 41.8 0.00 0.99 0.00 86 1000.6
20260904220515 15 267 24.1 41.8 0.00 0.99 0.00 87 1000.5
20260904213515 15 258 22.5 37.0 0.00 0.99 0.99 87 1000.3
20260904212515 14 275 25.7 40.2 0.00 1.02 0.99 87 1000.3
20260904211516 14 252 29.0 40.2 0.00 1.02 0.99 88 1000.1
20260904210516 14 260 27.4 40.2 0.00 1.02 0.99 88 1000.1
20260904203516 14 253 19.3 37.0 0.00 1.02 0.99 91 999.7
20260904202515 14 283 32.2 38.6 0.00 1.02 0.99 91 999.7
20260904200514 14 262 25.7 37.0 0.00 1.02 0.99 94 999.5
20260904193515 13 318 14.5 25.7 0.15 1.02 0.99 94 999.2
20260904191517 13 259 14.5 25.7 0.15 1.02 0.99 94 999.1
20260904190514 13 269 14.5 24.1 0.18 1.02 0.99 94 998.8
20260904184515 14 255 16.1 24.1 0.13 0.91 0.89 94 998.9
20260904175515 15 237 14.5 22.5 0.00 0.79 0.79 92 998.5
20260904173515 15 235 9.7 19.3 0.00 0.79 0.79 92 998.5
20260904170515 15 234 8.0 14.5 0.00 0.79 0.79 92 998.5
20260904165516 15 240 9.7 16.1 0.00 0.79 0.79 92 998.3
20260904163516 16 295 11.3 20.9 0.00 0.79 0.79 92 998.4
20260904161515 16 311 11.3 16.1 0.00 0.79 0.79 92 998.7
20260904160515 16 322 11.3 19.3 0.00 0.79 0.79 92 998.4
20260904154516 16 240 9.7 20.9 0.00 0.79 0.79 93 998.6
20260904153516 16 249 11.3 20.9 0.00 0.79 0.79 93 998.6
20260904145515 16 260 14.5 25.7 0.00 0.79 0.79 94 998.7
20260904144516 16 326 11.3 22.5 0.00 0.79 0.79 94 998.7
20260904143515 16 252 11.3 20.9 0.00 0.79 0.79 95 998.8
20260904141516 16 238 9.7 16.1 0.05 0.81 0.79 95 998.7
20260904133515 14 315 9.7 16.1 0.33 0.81 0.79 95 999.1
20260904132516 14 321 11.3 19.3 0.36 0.79 0.76 95 999.1
20260904131516 14 0 14.5 24.1 0.33 0.76 0.71 95 999.2
20260904124515 15 293 8.0 14.5 0.23 0.53 0.51 95 999.3
20260904123516 15 321 11.3 16.1 0.23 0.51 0.46 94 999.3
20260904121515 15 241 8.0 16.1 0.20 0.43 0.38 94 999.8
20260904115515 15 295 14.5 24.1 0.15 0.33 0.30 94 1000.0
20260904114516 16 220 11.3 22.5 0.13 0.30 0.25 94 1000.1
20260904113515 16 241 11.3 25.7 0.10 0.25 0.23 94 1000.2
20260904112515 16 224 9.7 20.9 0.08 0.23 0.20 94 1000.1
20260904110516 16 216 11.3 24.1 0.05 0.23 0.15 94 1000.1
20260904105515 16 221 14.5 22.5 0.05 0.20 0.15 94 1000.3
20260904104516 16 235 14.5 24.1 0.05 0.20 0.15 94 1000.3
20260904103525 16 204 16.1 25.7 0.05 0.18 0.13 94 1000.5
20260904101526 16 290 14.5 25.7 0.05 0.15 0.10 93 1000.8
20260904094526 16 223 16.1 25.7 0.05 0.15 0.08 93 1001.2
20260904084526 16 206 19.3 25.7 0.00 0.20 0.03 91 1002.3
20260904082514 16 198 19.3 25.7 0.00 0.23 0.03 90 1002.5
20260904081514 16 288 12.9 25.7 0.00 0.23 0.03 90 1002.6
20260904080515 16 298 14.5 24.1 0.00 0.23 0.03 90 1002.7
20260904071515 15 231 4.8 9.7 0.03 0.33 0.03 92 1003.1
20260904070514 15 224 4.8 11.3 0.03 0.33 0.03 92 1003.3
20260904064515 15 238 4.8 14.5 0.03 0.33 0.03 92 1003.6
20260904063515 15 240 8.0 12.9 0.03 0.33 0.03 91 1003.7
20260904061514 15 316 9.7 19.3 0.00 0.30 0.00 91 1004.0
20260904060515 15 295 14.5 20.9 0.00 0.30 0.00 90 1004.0
20260904051514 15 241 12.9 20.9 0.00 0.30 0.00 87 1004.5